• In Austria
  • List of Countries
  • For 7 days
  • Water Temperature
  • Satellite Maps
  • Weather Map
  • News
  • Weather Widgets
  • user-avatar
    Login

    Hourly Weather Bansko

    Today, 20 September, Thursday

    Time Temperature Precipitation Wind Pressure Humidity
    00:00 +16°C° 0 mm 1 mps 725 mmHg 67%
    01:00 +16°C° 0 mm 1 mps 725 mmHg 67%
    02:00 +15°C° 0 mm 1 mps 724 mmHg 70%
    03:00 +15°C° 0 mm 1 mps 724 mmHg 69%
    04:00 +15°C° 0 mm 1 mps 724 mmHg 68%
    05:00 +14°C° 0 mm 1 mps 724 mmHg 68%
    06:00 +16°C° 0 mm 1 mps 724 mmHg 62%
    07:00 +19°C° 0 mm 1 mps 724 mmHg 56%
    08:00 +20°C° 0 mm 1 mps 725 mmHg 50%
    09:00 +23°C° 0 mm 1 mps 725 mmHg 43%
    10:00 +25°C° 0 mm 1 mps 725 mmHg 36%
    11:00 +27°C° 0 mm 2 mps 725 mmHg 28%
    12:00 +28°C° 0 mm 2 mps 725 mmHg 26%
    13:00 +29°C° 0 mm 2 mps 724 mmHg 24%
    14:00 +30°C° 0 mm 2 mps 724 mmHg 22%
    15:00 +30°C° 0 mm 2 mps 724 mmHg 24%
    16:00 +29°C° 0 mm 2 mps 723 mmHg 25%
    17:00 +28°C° 0 mm 2 mps 723 mmHg 26%
    18:00 +25°C° 0 mm 2 mps 723 mmHg 33%
    19:00 +22°C° 0 mm 1 mps 723 mmHg 39%
    20:00 +20°C° 0 mm 1 mps 723 mmHg 46%
    21:00 +19°C° 0 mm 1 mps 723 mmHg 48%
    22:00 +18°C° 0 mm 1 mps 723 mmHg 49%
    23:00 +18°C° 0 mm 1 mps 723 mmHg 51%

    Tomorrow, 21 September, Friday

    Time Temperature Precipitation Wind Pressure Humidity
    00:00 +16°C° 0 mm 1 mps 723 mmHg 52%
    01:00 +16°C° 0 mm 1 mps 723 mmHg 52%
    02:00 +15°C° 0 mm 1 mps 723 mmHg 53%
    03:00 +15°C° 0 mm 1 mps 723 mmHg 53%
    04:00 +15°C° 0 mm 1 mps 723 mmHg 53%
    05:00 +15°C° 0 mm 1 mps 723 mmHg 53%
    06:00 +16°C° 0 mm 1 mps 723 mmHg 49%
    07:00 +19°C° 0 mm 1 mps 723 mmHg 45%
    08:00 +21°C° 0 mm 1 mps 724 mmHg 41%
    09:00 +23°C° 0 mm 1 mps 724 mmHg 36%
    10:00 +26°C° 0 mm 1 mps 724 mmHg 32%
    11:00 +28°C° 0 mm 1 mps 724 mmHg 27%
    12:00 +29°C° 0 mm 1 mps 724 mmHg 25%
    13:00 +29°C° 0 mm 1 mps 723 mmHg 24%
    14:00 +30°C° 0 mm 1 mps 723 mmHg 23%
    15:00 +29°C° 0 mm 1 mps 723 mmHg 25%
    16:00 +29°C° 0 mm 1 mps 722 mmHg 27%
    17:00 +28°C° 0 mm 1 mps 722 mmHg 28%
    18:00 +26°C° 0 mm 1 mps 722 mmHg 33%
    19:00 +23°C° 0 mm 1 mps 722 mmHg 38%
    20:00 +21°C° 0 mm 1 mps 722 mmHg 43%
    21:00 +20°C° 0 mm 1 mps 722 mmHg 45%
    22:00 +20°C° 0 mm 1 mps 722 mmHg 47%
    23:00 +19°C° 0 mm 1 mps 723 mmHg 50%

    Day after tomorrow, 22 September, Saturday

    Time Temperature Precipitation Wind Pressure Humidity
    00:00 +19°C° 0 mm 1 mps 722 mmHg 52%
    01:00 +18°C° 0 mm 1 mps 722 mmHg 53%
    02:00 +18°C° 0 mm 1 mps 722 mmHg 55%
    03:00 +18°C° 0 mm 1 mps 722 mmHg 56%
    04:00 +16°C° 0 mm 1 mps 722 mmHg 57%
    05:00 +16°C° 0 mm 1 mps 722 mmHg 58%
    06:00 +19°C° 0 mm 1 mps 722 mmHg 53%
    07:00 +19°C° 0 mm 0 mps 723 mmHg 49%
    08:00 +20°C° 0 mm 0 mps 723 mmHg 45%
    09:00 +23°C° 0 mm 0 mps 723 mmHg 39%
    10:00 +27°C° 0 mm 1 mps 723 mmHg 34%
    11:00 +30°C° 0 mm 1 mps 724 mmHg 28%
    12:00 +30°C° 0 mm 1 mps 723 mmHg 27%
    13:00 +31°C° 0 mm 1 mps 723 mmHg 26%
    14:00 +32°C° 0 mm 1 mps 723 mmHg 24%
    15:00 +31°C° 0 mm 1 mps 723 mmHg 26%
    16:00 +31°C° 0 mm 1 mps 722 mmHg 27%
    17:00 +30°C° 0 mm 1 mps 722 mmHg 29%
    18:00 +27°C° 0 mm 1 mps 722 mmHg 35%
    19:00 +25°C° 0 mm 1 mps 723 mmHg 40%
    20:00 +22°C° 0 mm 1 mps 723 mmHg 46%
    21:00 +21°C° 0 mm 1 mps 723 mmHg 49%
    22:00 +21°C° 0 mm 1 mps 724 mmHg 52%
    23:00 +20°C° 0 mm 1 mps 724 mmHg 55%

    23 September, Sunday

    Time Temperature Precipitation Wind Pressure Humidity
    00:00 +20°C° 0 mm 1 mps 724 mmHg 58%
    01:00 +18°C° 0 mm 2 mps 724 mmHg 62%
    02:00 +18°C° 0 mm 2 mps 725 mmHg 66%
    03:00 +18°C° 0 mm 2 mps 725 mmHg 69%
    04:00 +17°C° 0 mm 2 mps 725 mmHg 73%
    05:00 +17°C° 0 mm 2 mps 725 mmHg 76%
    06:00 +19°C° 0 mm 1 mps 725 mmHg 72%
    07:00 +21°C° 0 mm 1 mps 725 mmHg 68%
    08:00 +22°C° 0 mm 1 mps 726 mmHg 64%
    09:00 +24°C° 0 mm 1 mps 726 mmHg 55%
    10:00 +27°C° 0 mm 1 mps 726 mmHg 47%
    11:00 +29°C° 0 mm 1 mps 726 mmHg 39%
    12:00 +30°C° 0 mm 1 mps 726 mmHg 37%
    13:00 +31°C° 0 mm 1 mps 726 mmHg 34%
    14:00 +32°C° 0 mm 1 mps 725 mmHg 32%
    15:00 +31°C° 0 mm 1 mps 725 mmHg 33%
    16:00 +31°C° 0 mm 1 mps 724 mmHg 34%
    17:00 +30°C° 0 mm 1 mps 724 mmHg 35%
    18:00 +27°C° 0 mm 1 mps 724 mmHg 41%
    19:00 +25°C° 0 mm 1 mps 724 mmHg 48%
    20:00 +22°C° 0 mm 1 mps 724 mmHg 54%
    21:00 +22°C° 0 mm 1 mps 724 mmHg 56%
    22:00 +21°C° 0 mm 1 mps 724 mmHg 58%
    23:00 +21°C° 0 mm 1 mps 724 mmHg 59%

    24 September, Monday

    Time Temperature Precipitation Wind Pressure Humidity
    00:00 +20°C° 0 mm 1 mps 724 mmHg 61%
    01:00 +20°C° 0 mm 1 mps 723 mmHg 62%
    02:00 +19°C° 0 mm 1 mps 723 mmHg 63%
    03:00 +19°C° 0 mm 1 mps 723 mmHg 64%
    04:00 +19°C° 0 mm 1 mps 722 mmHg 65%
    05:00 +19°C° 0 mm 1 mps 722 mmHg 66%
    06:00 +20°C° 0 mm 1 mps 722 mmHg 61%
    07:00 +22°C° 0 mm 1 mps 722 mmHg 56%
    08:00 +23°C° 0 mm 1 mps 722 mmHg 52%
    09:00 +25°C° 0 mm 2 mps 722 mmHg 45%
    10:00 +28°C° 0 mm 2 mps 722 mmHg 39%
    11:00 +30°C° 0 mm 2 mps 722 mmHg 32%
    12:00 +31°C° 0 mm 2 mps 721 mmHg 30%
    13:00 +33°C° 0 mm 3 mps 721 mmHg 28%
    14:00 +34°C° 0 mm 3 mps 721 mmHg 25%
    15:00 +33°C° 0 mm 3 mps 721 mmHg 28%
    16:00 +32°C° 0 mm 4 mps 721 mmHg 32%
    17:00 +30°C° 0 mm 4 mps 722 mmHg 35%
    18:00 +26°C° 0 mm 4 mps 722 mmHg 44%
    19:00 +22°C° 0 mm 4 mps 723 mmHg 53%
    20:00 +19°C° 0 mm 3 mps 723 mmHg 62%
    21:00 +18°C° 0 mm 3 mps 724 mmHg 64%
    22:00 +17°C° 0 mm 3 mps 724 mmHg 66%
    23:00 +16°C° 0 mm 3 mps 725 mmHg 69%

    25 September, Tuesday

    Time Temperature Precipitation Wind Pressure Humidity
    00:00 +14°C° 0 mm 3 mps 725 mmHg 69%
    01:00 +14°C° 0 mm 3 mps 725 mmHg 69%
    02:00 +14°C° 0 mm 2 mps 725 mmHg 69%
    03:00 +14°C° 0 mm 2 mps 725 mmHg 68%
    04:00 +14°C° 0 mm 2 mps 725 mmHg 67%
    05:00 +13°C° 0 mm 2 mps 726 mmHg 66%
    06:00 +14°C° 0 mm 2 mps 726 mmHg 62%
    07:00 +15°C° 0 mm 2 mps 726 mmHg 58%
    08:00 +14°C° 0 mm 3 mps 726 mmHg 54%
    09:00 +14°C° 0 mm 3 mps 726 mmHg 54%
    10:00 +16°C° 0 mm 3 mps 727 mmHg 53%
    11:00 +16°C° 0 mm 3 mps 727 mmHg 53%
    12:00 +14°C° 0.1 mm 3 mps 726 mmHg 54%
    13:00 +14°C° 0.1 mm 3 mps 726 mmHg 55%
    14:00 +14°C° 0.1 mm 3 mps 726 mmHg 56%
    15:00 +14°C° 0 mm 3 mps 726 mmHg 57%
    16:00 +13°C° 0 mm 3 mps 726 mmHg 58%
    17:00 +13°C° 0 mm 3 mps 726 mmHg 59%
    18:00 +12°C° 0.6 mm 3 mps 726 mmHg 66%
    19:00 +11°C° 0.6 mm 3 mps 727 mmHg 73%
    20:00 +10°C° 0.6 mm 2 mps 727 mmHg 80%
    21:00 +9°C° 0.3 mm 2 mps 727 mmHg 83%
    22:00 +8°C° 0.3 mm 2 mps 727 mmHg 85%
    23:00 +8°C° 0.3 mm 2 mps 727 mmHg 87%
    Show more